TimeEST,TemperatureF,Dew PointF,Humidity,Sea Level PressureIn,VisibilityMPH,Wind Direction,Wind SpeedMPH,Gust SpeedMPH,PrecipitationIn,Events,Conditions,WindDirDegrees,DateUTC
12:52 AM,15.1,10.9,84,30.65,10.0,Calm,Calm,-,N/A,,Clear,0,2012-11-19 05:52:00
1:52 AM,15.1,10.9,84,30.64,10.0,Calm,Calm,-,N/A,,Clear,0,2012-11-19 06:52:00
2:52 AM,12.9,10.0,88,30.63,10.0,Calm,Calm,-,N/A,,Clear,0,2012-11-19 07:52:00
3:52 AM,12.0,9.0,88,30.62,10.0,Calm,Calm,-,N/A,,Clear,0,2012-11-19 08:52:00
4:52 AM,10.9,7.0,84,30.63,10.0,Calm,Calm,-,N/A,,Clear,0,2012-11-19 09:52:00
5:52 AM,10.9,6.1,81,30.63,10.0,Calm,Calm,-,N/A,,Clear,0,2012-11-19 10:52:00
6:52 AM,9.0,5.0,84,30.63,10.0,Calm,Calm,-,N/A,,Clear,0,2012-11-19 11:52:00
7:52 AM,16.0,12.9,88,30.61,10.0,Calm,Calm,-,N/A,,Clear,0,2012-11-19 12:52:00
8:52 AM,23.0,17.1,78,30.59,10.0,Calm,Calm,-,N/A,,Clear,0,2012-11-19 13:52:00
9:52 AM,28.0,19.0,69,30.56,10.0,Calm,Calm,-,N/A,,Clear,0,2012-11-19 14:52:00
10:52 AM,35.1,18.0,50,30.52,10.0,Calm,Calm,-,N/A,,Clear,0,2012-11-19 15:52:00
11:52 AM,41.0,19.0,41,30.49,10.0,NNW,3.5,-,N/A,,Clear,340,2012-11-19 16:52:00
12:52 PM,43.0,18.0,37,30.45,10.0,Calm,Calm,-,N/A,,Clear,0,2012-11-19 17:52:00
1:52 PM,45.0,16.0,31,30.43,10.0,Calm,Calm,-,N/A,,Clear,0,2012-11-19 18:52:00
2:52 PM,46.0,16.0,30,30.41,10.0,Calm,Calm,-,N/A,,Clear,0,2012-11-19 19:52:00
3:52 PM,39.0,19.9,46,30.40,10.0,Calm,Calm,-,N/A,,Clear,0,2012-11-19 20:52:00
4:52 PM,28.9,19.9,69,30.40,10.0,Calm,Calm,-,N/A,,Clear,0,2012-11-19 21:52:00
5:52 PM,27.0,19.0,72,30.41,10.0,Calm,Calm,-,N/A,,Clear,0,2012-11-19 22:52:00
6:52 PM,25.0,19.0,78,30.40,10.0,Calm,Calm,-,N/A,,Clear,0,2012-11-19 23:52:00
7:52 PM,21.9,18.0,85,30.38,10.0,Calm,Calm,-,N/A,,Clear,0,2012-11-20 00:52:00
8:52 PM,19.9,17.1,89,30.37,10.0,Calm,Calm,-,N/A,,Clear,0,2012-11-20 01:52:00
9:52 PM,19.0,16.0,88,30.35,10.0,Calm,Calm,-,N/A,,Clear,0,2012-11-20 02:52:00
10:52 PM,17.1,14.0,88,30.34,10.0,Calm,Calm,-,N/A,,Clear,0,2012-11-20 03:52:00
11:52 PM,16.0,12.9,88,30.32,10.0,Calm,Calm,-,N/A,,Clear,0,2012-11-20 04:52:00